{"data":{"norad_id":64742,"epoch":"2026-09-20T22:06:19.202112Z","epoch_age_seconds":91274,"freshness":"FRESH","line1":"1 64742U 25144U   26263.92105558  .00013124  00000+0  39931-3 0  9991","line2":"2 64742  53.1607 353.4343 0001150  56.0446 304.0666 15.34365201 69598","mean_motion":15.34365201,"eccentricity":0.000115,"inclination_deg":53.1607,"raan_deg":353.4343,"arg_perigee_deg":56.0446,"mean_anomaly_deg":304.0666,"bstar":0.00039931,"rev_number":6959,"period_min":93.849886523854,"perigee_km":462.01996360117,"apogee_km":463.59338064576,"semimajor_km":6840.9436721235,"source":"CELESTRAK","updated_at":"2026-09-21T09:00:35.412681Z"}}